Temp
8 8 8 9 8 9 9 9 9 9 9 9 8 8 8 8 8 8 8 10 10 11 10 10 12 15 15 15 15 14 14 15 16 17 21 19 21 20 18 17 18 18 17 18 16
8 8 8 8 8 9 9 9 8 8 8 8 9 8 8 7 7 8 9 9 10 11 9 10 12 14 14 14 14 14 13 17 17 18 20 20 20 19 18 18 16 16 16 16 16
8 8 8 8 8 8 8 8 9 8 8 9 8 7 7 7 7 8 9 8 9 10 9 9 9 14 15 14 14 14 17 17 19 19 21 20 19 19 19 18 16 17 17 16 16
8 8 8 8 8 8 8 8 8 8 8 8 7 7 6 6 7 7 6 7 7 8 8 9 10 13 15 13 15 15 17 17 20 20 21 20 19 19 21 20 18 18 17 16 16
8 8 8 7 8 8 8 8 8 8 8 8 7 8 6 7 7 7 7 7 7 6 8 10 9 14 15 14 16 15 17 18 18 19 21 19 19 19 18 18 18 18 17 16 16
7 8 7 7 7 7 7 8 8 8 8 8 8 7 7 7 9 8 7 7 7 6 8 9 10 12 15 14 16 15 16 18 19 19 20 20 19 20 18 18 18 17 17 16 16
7 7 7 7 7 7 7 7 7 8 8 8 8 7 8 8 9 8 7 7 6 6 8 9 9 9 14 14 15 15 16 18 19 20 21 18 19 18 16 18 17 17 16 16 16
7 7 7 6 7 7 7 7 8 9 9 8 8 8 7 9 9 8 7 6 6 6 6 8 8 9 14 15 16 15 16 16 18 19 19 20 18 16 16 17 17 17 16 16 16
7 6 6 6 6 7 7 8 9 9 10 9 8 8 8 8 7 8 7 7 6 6 7 8 9 11 13 15 15 15 16 15 18 18 19 19 17 17 17 17 17 16 16 16 16
6 6 6 6 6 7 8 10 9 10 10 9 9 8 8 8 9 8 7 6 7 7 8 9 9 12 13 16 15 15 16 16 16 17 18 17 16 17 17 17 17 16 17 16 16
6 6 6 6 7 7 9 10 6 7 6 7 8 8 9 9 9 8 6 6 7 8 9 9 10 13 15 17 17 15 16 17 16 17 18 17 16 17 17 17 17 17 16 16 17
6 6 6 6 7 7 7 4 5 5 5 7 7 8 8 7 6 7 6 6 7 10 10 9 11 13 16 15 15 15 16 15 16 17 16 16 16 17 17 18 17 17 16 16 16
8 6 6 7 7 6 5 4 5 5 4 7 8 8 6 6 6 5 7 6 9 11 11 11 12 14 16 15 15 15 17 15 16 17 16 17 16 15 16 16 17 17 16 16 16
8 7 7 8 7 5 4 5 6 5 4 7 6 5 5 5 6 7 7 7 9 10 11 12 14 15 14 15 16 15 15 16 16 17 15 16 15 16 15 16 16 17 15 15 16
8 7 6 7 7 4 4 5 6 5 5 6 5 5 6 6 7 8 8 7 10 12 12 11 14 14 13 14 16 15 16 16 17 15 15 17 15 16 15 15 16 16 15 15 16
9 7 7 6 5 4 5 5 5 2 4 4 5 5 6 7 7 10 11 10 11 14 14 13 14 14 14 13 15 14 15 15 14 15 15 16 16 17 14 17 16 15 15 15 15
10 8 7 5 3 4 5 3 1 0 5 5 4 5 6 5 7 9 9 8 10 11 13 14 13 14 15 15 15 16 18 13 14 13 14 13 16 17 17 17 18 16 16 16 15
10 9 8 6 6 6 5 1 1 3 3 5 5 5 4 4 6 8 8 6 7 7 10 9 12 14 14 15 14 16 16 13 13 13 14 13 14 17 16 16 18 18 17 16 16
11 10 7 8 8 8 2 1 1 2 3 4 4 3 4 4 5 7 6 5 6 6 8 10 12 13 15 15 16 16 15 15 12 12 14 13 15 17 13 12 11 13 16 15 16
10 8 6 7 8 7 1 3 3 4 3 4 1 1 1 1 4 2 5 5 5 6 6 9 11 13 15 16 16 16 14 14 12 12 15 13 14 15 13 10 9 8 7 7 8
9 4 8 8 8 1 -1 2 4 4 3 3 2 1 -0 -1 -3 -1 3 5 5 6 7 8 11 12 14 14 14 15 14 13 13 12 12 12 13 10 9 7 7 6 5 5 5
4 4 8 7 0 -4 -2 3 4 3 3 3 3 3 2 2 1 0 2 3 5 5 7 8 9 11 12 13 14 15 15 13 13 14 11 12 13 7 6 6 6 5 4 4 4
-1 2 8 5 -1 -5 2 2 2 2 2 3 2 2 3 3 3 3 4 6 5 5 7 7 10 9 11 14 14 14 14 14 12 12 12 12 13 6 5 4 4 4 3 3 3
-2 0 0 -1 -3 -2 -1 0 2 2 2 2 3 2 2 2 2 3 2 5 4 4 7 7 10 11 12 13 12 13 14 14 14 12 12 13 9 5 5 4 3 2 3 2 2
-3 -4 -5 -2 -2 -8 -5 -6 -3 -2 1 2 2 2 1 -0 2 2 2 2 5 4 3 4 7 9 10 10 11 12 13 13 14 14 14 14 11 6 4 3 2 2 2 1 1
-1 -2 -5 -10 -10 -6 -4 -6 -3 -2 -2 -1 -2 -0 -1 -3 -1 -2 0 2 1 1 1 1 4 7 11 9 9 12 11 11 13 13 10 9 8 3 2 2 1 1 0 -0 -0
0 0 -2 -3 -9 -5 -5 -3 -2 0 1 2 0 -2 -1 1 1 0 0 0 1 1 0 -1 -0 4 6 9 9 10 8 7 6 4 7 10 7 1 1 2 0 -1 -0 -1 -1
Height
777 773 769 766 762 758 754 751 748 745 742 739 736 734 732 731 730 732 733 732 735 737 738 740 741 743 750 751 752 757 771 775 768 772 761 759 760 762 764 771 775 776 777 780 789
774 770 766 762 758 755 751 748 745 741 738 735 732 730 728 728 727 726 729 731 734 735 738 742 741 741 747 747 751 756 769 756 753 755 756 756 754 762 770 773 781 781 781 786 790
771 767 763 760 756 752 748 745 741 738 734 731 728 727 726 726 727 725 728 731 731 732 733 735 739 737 741 747 748 751 750 751 746 745 746 754 757 756 764 778 772 775 782 788 791
769 765 761 757 753 749 745 741 737 734 731 729 727 726 724 724 728 727 727 728 730 731 733 736 736 736 738 744 741 750 746 745 741 740 745 752 754 759 754 758 758 763 770 781 790
765 762 757 754 750 745 741 737 734 731 728 726 726 725 724 728 728 726 726 728 728 732 732 734 741 729 730 739 742 747 744 744 742 741 742 748 753 756 763 759 763 774 779 785 793
763 758 754 751 747 742 737 734 731 728 726 724 723 725 726 726 723 724 726 728 727 731 730 729 731 729 732 736 737 742 745 745 741 743 744 751 757 755 765 762 768 775 781 786 791
760 755 751 749 742 738 734 731 728 725 724 724 723 725 726 725 723 724 725 729 728 730 730 727 731 737 725 736 740 742 750 747 744 742 745 749 764 766 762 764 772 780 785 789 793
757 752 749 745 739 735 731 728 724 723 723 724 724 725 725 723 722 721 721 726 730 727 732 729 737 737 724 727 743 750 751 765 751 746 748 751 774 771 766 765 778 783 787 791 793
754 750 745 740 738 732 727 723 722 722 722 723 724 725 724 724 723 721 722 722 725 726 723 727 734 734 727 729 750 747 752 763 756 749 750 755 772 770 770 772 776 784 787 792 796
752 748 744 738 735 730 724 721 721 721 722 723 724 728 725 723 718 719 723 723 722 727 731 729 736 715 724 722 740 745 754 761 762 755 754 765 773 768 771 773 773 783 788 792 795
750 747 743 739 733 729 722 720 725 727 725 728 726 724 720 718 717 718 722 724 724 722 716 724 720 711 714 714 723 740 743 752 759 752 756 765 772 769 771 778 782 786 789 792 794
749 746 743 737 734 729 724 729 735 736 735 727 725 721 723 722 723 719 720 722 717 708 716 737 718 715 707 719 731 743 751 761 760 752 760 771 777 772 772 773 774 778 787 789 793
748 745 742 735 733 731 734 736 737 737 741 731 726 722 724 724 721 720 715 716 708 703 713 722 719 713 715 726 735 748 745 758 760 758 766 771 785 784 780 780 782 784 787 789 790
748 746 741 735 738 737 738 737 737 736 748 738 735 733 727 723 718 711 713 712 706 713 719 721 716 714 724 731 731 750 747 750 758 760 786 775 800 785 783 784 784 783 787 787 789
749 747 742 737 740 740 741 738 737 738 756 748 743 736 726 718 713 708 707 715 708 711 719 730 720 724 737 736 733 747 745 749 755 771 778 780 795 786 781 787 782 782 785 786 786
749 747 742 740 740 742 740 741 741 767 775 761 750 739 724 715 713 702 697 700 705 705 710 722 724 729 733 738 737 746 750 759 769 776 792 783 788 783 786 771 780 780 781 781 784
751 749 742 743 745 741 740 742 772 799 773 769 762 751 741 737 728 719 720 729 727 728 728 726 733 729 729 742 743 742 747 786 794 799 795 794 790 778 768 763 760 767 771 773 777
752 750 746 744 743 742 743 762 794 796 792 774 767 755 759 754 743 736 737 754 753 752 746 760 754 745 740 743 750 749 751 779 801 803 794 795 794 771 765 761 758 759 759 767 773
751 751 750 747 744 743 756 783 807 804 794 786 773 775 766 763 757 749 764 774 773 769 766 761 755 747 740 741 744 752 761 761 788 795 793 796 778 765 771 776 779 774 768 772 771
751 754 758 754 749 747 774 790 798 797 795 789 801 798 804 795 773 782 779 785 780 777 776 766 765 752 746 741 743 746 755 772 784 801 791 797 788 779 780 791 792 794 796 794 788
753 763 762 757 755 770 805 803 799 797 795 793 800 808 815 817 824 816 804 790 787 782 776 773 757 760 751 757 756 755 759 765 772 785 797 800 791 790 796 803 803 807 805 804 802
760 783 769 760 781 809 820 806 804 804 800 798 799 800 807 806 811 816 812 803 795 792 779 776 770 769 761 754 752 752 756 762 771 776 790 786 783 803 807 810 808 811 811 809 808
781 784 772 764 814 833 812 812 814 810 809 804 805 806 802 801 801 803 797 793 795 794 787 783 770 786 774 757 752 754 756 755 766 773 780 790 779 807 810 814 815 814 815 814 813
786 803 791 793 817 824 825 824 818 817 815 813 812 808 807 808 806 808 809 797 796 796 788 786 769 765 762 754 760 758 754 754 759 774 776 771 789 808 811 814 818 819 819 818 817
797 825 824 828 823 840 836 848 839 834 822 817 816 818 820 825 812 816 816 813 801 801 798 796 789 776 770 771 766 760 755 757 760 759 764 759 774 798 812 816 821 821 822 821 820
808 819 828 846 844 837 835 849 841 834 831 830 834 826 828 840 831 838 827 819 823 814 815 810 802 790 767 772 774 761 766 762 756 760 773 779 790 811 817 818 821 824 824 826 825
809 811 815 836 853 843 848 839 834 827 825 820 824 833 829 823 824 823 821 820 825 826 824 828 825 805 797 778 775 775 774 778 785 798 782 775 783 809 815 816 822 825 826 828 828
Wind_Speed
19 19 20 20 21 22 23 22 21 22 22 22 19 13 19 15 12 10 9 11 15 21 13 13 13 20 19 10 5 4 4 7 10 10 7 6 5 2 1 9 1 1 4 19 25
20 21 20 21 22 23 23 22 22 21 24 24 18 13 11 11 10 11 11 10 16 14 8 9 13 18 9 9 6 5 5 10 6 8 7 5 9 11 6 5 4 7 15 28 31
21 21 22 21 22 24 23 23 23 21 21 18 13 6 8 4 1 2 13 7 14 15 11 10 7 16 14 7 7 8 10 5 6 8 8 8 4 4 18 4 7 21 24 23 27
21 21 22 22 23 24 24 23 23 20 19 15 2 6 2 4 2 6 9 7 3 4 9 11 5 16 15 13 11 9 3 6 5 8 6 9 10 5 17 6 12 26 30 22 22
22 22 23 23 23 24 24 23 21 17 18 13 6 1 1 4 3 8 6 3 4 8 12 14 11 12 20 12 13 5 6 2 2 8 3 9 7 8 1 5 18 19 20 21 18
23 22 24 24 25 25 24 23 19 16 13 12 6 8 0 2 3 12 9 3 2 9 15 12 7 11 19 14 18 8 7 1 3 5 6 7 4 6 2 13 19 22 19 18 20
24 23 23 24 25 24 23 21 19 14 8 6 5 10 2 3 4 9 5 2 3 9 11 16 26 4 12 12 9 8 6 3 1 2 4 8 4 6 7 16 20 18 15 15 16
24 23 22 23 23 23 22 21 14 7 4 3 3 5 2 1 4 7 5 2 5 7 5 14 15 8 4 10 7 6 6 5 4 4 3 4 5 2 8 22 19 16 14 13 16
23 22 20 21 21 21 21 15 5 4 1 2 0 3 2 2 4 7 7 3 2 3 4 12 5 8 4 19 8 2 15 6 3 2 4 4 3 8 8 15 19 14 15 13 12
22 20 19 20 19 17 19 4 3 4 2 2 3 1 4 5 5 7 9 4 4 9 10 9 8 3 10 19 17 16 13 4 7 5 6 5 3 13 10 15 20 15 14 14 14
21 20 19 18 13 14 14 2 5 5 9 1 5 3 5 21 1 3 5 5 4 8 4 8 5 11 26 23 19 9 13 14 1 3 7 6 9 15 11 8 14 12 12 12 15
19 19 20 17 5 12 7 5 3 2 3 1 6 6 17 15 3 4 2 5 6 10 16 4 9 15 24 13 14 8 15 4 5 4 7 3 7 13 16 19 18 22 14 14 8
18 21 20 12 2 10 16 7 5 3 2 5 5 5 10 12 3 5 3 5 6 15 16 5 11 9 18 15 15 4 19 6 9 5 7 7 4 3 7 4 8 9 6 8 13
17 20 19 8 1 6 4 3 2 3 4 14 12 3 8 8 5 7 3 3 2 18 19 8 2 15 14 8 14 7 7 9 10 6 6 3 4 4 4 7 11 12 10 13 12
21 21 16 11 2 3 6 1 1 2 5 19 10 11 17 5 9 10 4 6 10 16 8 2 11 12 8 5 6 6 6 8 4 5 6 3 4 5 5 8 13 15 13 13 14
21 25 17 6 5 5 2 3 1 6 5 10 7 15 15 14 9 3 5 8 3 18 11 6 3 5 3 5 5 8 9 8 6 4 1 4 4 4 6 13 7 12 14 15 13
16 22 24 14 9 6 7 3 6 6 8 12 10 14 12 10 14 12 10 13 7 10 11 9 5 4 5 9 7 7 15 3 3 2 3 3 3 7 4 9 14 18 17 17 16
7 24 29 29 21 5 2 6 11 4 4 5 7 13 8 14 14 18 12 10 12 9 8 4 5 5 5 5 7 2 5 6 6 5 5 3 6 5 4 5 2 9 15 14 15
1 11 26 33 21 7 7 6 3 3 6 8 9 7 9 8 5 7 10 8 8 11 5 5 2 3 3 2 2 4 2 3 8 2 3 3 5 4 7 9 12 9 2 5 10
2 4 21 27 17 13 6 8 3 5 5 3 7 5 9 12 8 7 10 7 9 7 6 2 5 3 3 2 3 5 6 4 2 6 5 3 4 4 4 7 10 13 12 12 11
6 4 25 18 12 7 5 5 4 6 6 7 5 6 4 4 4 5 4 2 8 8 7 4 2 2 3 2 3 3 1 4 5 4 5 4 6 1 1 4 6 8 10 10 11
5 5 21 10 5 3 3 4 5 8 6 5 3 5 3 4 6 4 3 3 10 6 5 4 2 4 3 4 1 2 2 4 5 4 1 3 5 3 5 5 5 7 9 10 10
3 1 16 13 5 3 3 4 5 9 7 7 7 5 3 5 4 4 4 4 8 6 4 6 3 3 6 6 1 3 3 4 4 3 6 6 5 2 5 6 7 8 9 9 11
3 4 4 5 3 4 3 4 3 4 3 4 5 3 3 5 4 4 7 3 6 7 8 5 1 2 6 6 3 4 4 4 4 3 4 5 5 6 3 4 5 6 8 8 9
4 1 3 4 5 4 4 1 3 5 5 6 3 7 1 3 4 5 3 5 3 12 6 3 3 1 1 2 2 2 4 6 5 3 4 2 6 6 5 5 4 5 6 8 10
4 3 3 1 2 4 5 3 3 4 3 5 4 4 5 4 4 3 3 4 1 7 7 8 2 2 1 3 5 3 3 3 5 3 3 6 3 5 4 5 5 5 6 7 8
3 3 4 4 3 4 2 1 2 2 3 2 2 2 3 1 3 5 5 3 1 4 5 5 4 3 3 2 4 5 4 2 3 0 4 7 3 11 5 7 4 4 5 6 7
Wind_Direction
327 327 326 324 327 324 325 322 319 319 313 307 307 294 310 280 253 221 226 220 223 239 273 296 212 193 186 190 143 121 118 188 177 165 188 170 124 34 89 122 64 69 147 142 143
329 326 324 323 323 323 322 320 316 315 313 305 297 284 299 293 211 210 226 233 222 214 200 213 214 184 187 176 185 163 169 188 181 162 176 190 142 143 115 125 46 84 98 130 137
326 324 323 323 323 321 322 322 316 314 309 315 310 268 298 211 80 210 218 250 227 212 198 211 323 183 182 161 187 178 206 191 199 166 145 155 117 134 142 215 198 150 145 144 141
323 324 323 323 321 321 320 322 317 313 311 312 298 24 125 123 178 163 90 41 34 127 186 179 254 192 181 184 188 143 175 181 161 165 143 158 134 117 164 216 153 157 153 150 151
326 324 321 321 319 320 320 320 320 316 317 312 200 12 157 71 224 178 80 121 335 167 207 184 208 184 193 181 177 137 158 196 89 151 136 131 159 169 4 102 130 141 146 148 148
328 324 320 321 318 319 321 322 322 317 323 330 200 174 284 50 208 179 159 175 271 201 199 190 190 247 195 174 184 148 132 147 213 96 136 132 128 107 264 138 136 151 153 154 153
328 323 322 322 319 322 322 324 320 313 317 355 142 169 176 271 167 190 194 153 248 197 193 187 223 296 137 146 182 135 112 19 89 141 111 120 42 173 146 146 145 156 149 151 153
330 325 327 325 323 324 325 323 322 324 307 353 139 194 251 300 222 228 223 276 158 214 239 178 177 285 214 131 144 110 81 117 285 134 67 90 207 89 155 143 154 159 157 157 160
333 331 333 329 333 328 327 327 348 324 216 233 120 173 302 156 215 266 209 201 183 178 243 135 122 233 132 145 134 107 175 148 182 178 114 93 162 157 162 162 154 160 161 162 155
340 342 345 340 340 335 338 299 355 72 80 243 266 78 179 279 238 160 175 179 242 168 157 156 218 178 159 158 171 171 168 121 158 174 54 90 117 159 162 167 163 162 167 167 166
345 351 352 348 344 352 342 279 21 8 49 159 280 224 275 324 14 114 92 164 236 209 148 117 204 161 165 172 160 138 162 160 39 199 102 136 144 167 169 145 167 174 171 175 174
351 352 358 350 3 360 59 65 58 200 331 280 278 264 4 17 319 283 198 198 208 140 119 147 202 176 165 146 128 107 136 124 42 79 88 97 160 169 174 188 180 178 180 180 170
8 5 359 348 46 21 45 31 11 16 19 327 9 3 343 340 298 265 207 196 145 132 140 156 165 155 146 128 125 126 158 146 141 117 47 103 10 149 200 168 190 199 195 181 181
0 5 9 2 325 3 46 26 12 15 65 6 357 351 312 303 250 228 178 190 100 135 147 119 198 137 132 135 137 130 160 124 135 114 154 43 211 268 187 195 201 193 187 190 188
15 13 3 30 357 43 332 129 284 9 47 335 319 292 307 286 311 19 209 181 117 136 144 72 126 124 83 142 124 159 148 126 113 90 104 353 84 260 145 205 206 207 200 201 198
15 20 33 14 32 1 19 149 65 40 6 335 318 335 351 13 17 8 101 39 160 96 71 69 101 78 121 70 85 146 94 57 56 75 88 182 124 246 194 208 194 207 205 202 198
18 26 34 35 331 348 143 76 44 60 329 332 335 331 342 356 19 53 59 47 73 96 104 67 14 9 72 70 21 113 137 90 46 47 195 319 136 228 228 219 194 198 202 202 198
42 29 27 14 13 112 95 55 65 279 313 319 323 322 33 2 28 35 61 32 11 31 88 109 110 359 352 97 157 140 139 136 145 197 197 101 209 236 268 279 265 215 198 195 195
98 17 17 3 11 71 65 58 77 317 295 319 318 18 349 4 38 40 43 27 22 12 76 100 54 330 59 105 129 193 115 160 102 17 73 212 275 306 26 32 8 355 89 211 201
70 56 13 355 28 63 62 90 74 5 322 2 34 40 2 344 31 39 22 345 345 17 340 358 85 358 325 53 18 131 154 87 13 133 186 271 270 221 18 347 356 10 14 2 12
54 51 356 0 40 52 78 65 37 355 13 37 18 9 353 15 50 19 1 356 2 337 334 353 89 286 43 15 148 66 125 75 113 127 163 151 253 104 20 16 359 11 21 17 16
60 42 343 28 59 32 41 17 17 340 3 28 90 36 38 1 29 51 62 5 354 326 351 359 3 102 178 214 251 129 178 123 151 209 109 158 253 52 94 68 54 39 27 28 23
82 310 7 38 67 12 33 46 52 10 4 9 23 28 355 23 66 55 356 12 1 3 358 344 317 76 3 336 123 219 202 131 113 77 189 136 252 113 100 75 48 46 29 30 27
75 26 354 42 62 100 40 15 28 13 49 355 19 8 23 28 17 32 351 340 332 356 330 311 40 83 194 251 14 161 164 163 138 138 181 211 169 196 134 90 42 39 30 29 32
29 288 199 342 6 62 80 9 2 10 357 13 34 21 329 67 5 24 8 325 311 360 357 59 99 251 176 352 353 303 173 179 177 178 175 238 184 163 146 128 83 49 35 33 25
93 103 10 69 356 55 14 347 28 320 52 342 77 318 16 121 162 196 20 28 5 328 2 338 177 349 157 25 26 264 259 299 181 144 90 130 190 136 124 109 88 54 43 30 17
61 97 108 332 5 55 271 222 291 36 300 271 286 36 20 201 227 240 221 245 262 334 330 16 5 30 253 13 48 308 255 191 80 336 131 188 160 159 154 145 124 81 46 25 8